ASTRA 1KR

Last updated on Jan. 18, 2020, 4:38 a.m. UTC

1 29055U 06012A   20017.52010490  .00000115  00000-0  00000-0 0  9998
2 29055   0.0421 238.6024 0004582  30.9063  53.2946  1.00269638 22249
UTC
Height (km)
Latitude
Longitude
Inclination
Orbital Period
UTC large
Height (km)
Speed (km/s)
/
Latitude / Longitude
Inclination (degrees)
Orbital Period (minutes)
Azimuth
Elevation
Range (km)
Doppler Factor
iOS Compass Heading
iOS Angle

Next 30 passes for location: Hong Kong

Rise time Rise Azimuth (degrees) Set time Set Azimuth (degrees) Duration Max altitude (degrees)

No matching passes for this satellites